Mineral Wells, TX

1:38 AM CDT on May 30, 2017 (GMT -0500)
Mineral Wells

Weather History for KMWL - November, 2013

Change the Weather History Date:

Thursday, November 21, 2013

  Actual Average Record
Temperature  
Mean Temperature 56 °F -  
Max Temperature 75 °F 63 °F 82 °F (1999)
Min Temperature 37 °F 42 °F 28 °F (2001)
Degree Days  
Heating Degree Days 9    
Growing Degree Days 6 (Base 50)    
Moisture  
Dew Point 59 °F    
Average Humidity 92    
Maximum Humidity 100    
Minimum Humidity 74    
Precipitation  
Precipitation 1.70 in - - ()
Sea Level Pressure  
Sea Level Pressure 29.99 in    
Wind  
Wind Speed 12 mph (ESE)    
Max Wind Speed 29 mph    
Max Gust Speed 38 mph    
Visibility 6 miles    
Events Fog , Rain , Snow , Thunderstorm    
Averages and records for this station are not official NWS values.
T = Trace of Precipitation, MM = Missing Value Source: NWS Daily Summary

Daily Weather History Graph

Daily Weather History Graph

Search for Another Location

Airport or City:

Trip Planner

Search our weather history database for the weather conditions in past years. The results will help you decide how hot, cold, wet, or windy it might be!

Date:

Astronomy

Nov. 21, 2013 Rise Set
Actual Time 7:08 AM CST 5:28 PM CST
Civil Twilight 6:41 AM CST 5:54 PM CST
Nautical Twilight 6:11 AM CST 6:24 PM CST
Astronomical Twilight 5:42 AM CST 6:54 PM CST
Moon 9:04 PM CST (11/21) 10:16 AM CST (11/21)
Length of Visible Light 11h 12m
Length of Day
10h 19m
Waning Gibbous, 85% of the Moon is Illuminated
Nov 21
Waning Gibbous
Nov 25
Last Quarter
Dec 2
New
Dec 9
First Quarter
Dec 17
Full

Hourly Weather History & Observations

Time (CST) Temp. Windchill Dew Point Humidity Pressure Visibility Wind Dir Wind Speed Gust Speed Precip Events Conditions
12:33 AM 62.1 °F - 57.0 °F 84% 29.92 in 10.0 mi SE 10.4 mph - 0.00 in Rain Light Rain
12:53 AM 62.1 °F - 57.0 °F 84% 29.90 in 10.0 mi SE 11.5 mph - 0.00 in Rain Light Rain
1:51 AM 62.6 °F - 59.0 °F 88% 29.92 in 10.0 mi SSE 12.7 mph - 0.00 in Rain Light Rain
1:53 AM 62.1 °F - 59.0 °F 90% 29.90 in 10.0 mi SSE 10.4 mph - 0.00 in   Overcast
2:53 AM 62.1 °F - 59.0 °F 90% 29.90 in 10.0 mi SE 9.2 mph - 0.00 in Rain Light Rain
3:53 AM 62.1 °F - 60.1 °F 93% 29.89 in 10.0 mi SE 9.2 mph - 0.00 in Rain Light Rain
4:53 AM 62.1 °F - 61.0 °F 96% 29.89 in 5.0 mi SSE 9.2 mph - 0.00 in   Overcast
5:12 AM 62.1 °F - 61.0 °F 96% 29.92 in 3.0 mi SE 11.5 mph - 0.00 in Rain Light Rain
5:53 AM 62.1 °F - 62.1 °F 100% 29.91 in 1.8 mi SE 11.5 mph - 0.00 in   Overcast
6:53 AM 62.1 °F - 62.1 °F 100% 29.93 in 1.2 mi SE 5.8 mph - N/A   Overcast
7:23 AM 62.1 °F - 62.1 °F 100% 29.96 in 0.8 mi SE 8.1 mph - N/A   Mist
7:53 AM 62.1 °F - 62.1 °F 100% 29.95 in 0.5 mi SE 10.4 mph - N/A Fog Fog
8:53 AM 63.0 °F - 63.0 °F 100% 29.96 in 0.5 mi SE 10.4 mph - N/A Fog Fog
9:11 AM 63.0 °F - 63.0 °F 100% 29.99 in 1.2 mi SE 11.5 mph - N/A   Overcast
9:53 AM 64.0 °F - 64.0 °F 100% 29.98 in 2.0 mi SE 11.5 mph - N/A   Overcast
10:21 AM 64.9 °F - 64.0 °F 97% 30.00 in 3.0 mi SE 11.5 mph - N/A   Overcast
10:53 AM 66.0 °F - 64.0 °F 93% 29.99 in 6.0 mi SE 6.9 mph - N/A   Overcast
11:53 AM 66.9 °F - 64.9 °F 93% 29.97 in 6.0 mi ESE 8.1 mph - N/A   Overcast
12:53 PM 69.1 °F - 66.0 °F 90% 29.95 in 7.0 mi ESE 8.1 mph - N/A   Overcast
1:00 PM 70.0 °F - 66.0 °F 87% 29.97 in 8.0 mi SE 9.2 mph - N/A   Overcast
1:23 PM 73.0 °F - 66.0 °F 79% 29.95 in 10.0 mi SE 9.2 mph - N/A   Scattered Clouds
1:53 PM 73.9 °F - 66.0 °F 76% 29.91 in 10.0 mi SE 11.5 mph - N/A   Partly Cloudy
2:53 PM 75.0 °F - 66.9 °F 76% 29.91 in 10.0 mi SE 5.8 mph - N/A   Mostly Cloudy
3:53 PM 75.9 °F - 66.9 °F 74% 29.91 in 10.0 mi ESE 9.2 mph - N/A   Partly Cloudy
4:53 PM 75.0 °F - 66.9 °F 76% 29.92 in 10.0 mi SE 9.2 mph - N/A Thunderstorm Partly Cloudy
5:45 PM 73.0 °F - 66.9 °F 81% 29.95 in 10.0 mi East 6.9 mph - N/A Thunderstorm Thunderstorm
5:53 PM 73.0 °F - 66.9 °F 81% 29.93 in 10.0 mi East 8.1 mph - N/A Thunderstorm Thunderstorm
6:13 PM 66.9 °F - 64.9 °F 93% 29.96 in 0.8 mi North 10.4 mph 33.4 mph 0.52 in Rain , Thunderstorm Heavy Thunderstorms and Rain
6:21 PM 66.0 °F - 64.9 °F 96% 29.99 in 0.5 mi NNW 21.9 mph 33.4 mph 1.04 in Fog , Rain , Thunderstorm Heavy Thunderstorms and Rain
6:39 PM 55.9 °F - 55.0 °F 97% 30.03 in 2.0 mi North 28.8 mph 34.5 mph 1.64 in Rain , Thunderstorm Heavy Thunderstorms and Rain
6:42 PM 55.0 °F - 54.0 °F 96% 30.02 in 4.0 mi North 25.3 mph 34.5 mph 1.64 in Rain , Thunderstorm Thunderstorms and Rain
6:53 PM 53.1 °F - 52.0 °F 96% 30.04 in 10.0 mi North 19.6 mph 32.2 mph 1.64 in Rain , Thunderstorm Light Thunderstorms and Rain
7:27 PM 48.0 °F - 46.0 °F 93% 30.10 in 10.0 mi NNW 23.0 mph 32.2 mph 0.01 in Rain , Thunderstorm Light Rain
7:53 PM 45.0 °F 36.4 °F 44.1 °F 97% 30.11 in 6.0 mi NNW 23.0 mph 32.2 mph 0.04 in Rain Heavy Rain
8:53 PM 42.1 °F 31.5 °F 41.0 °F 96% 30.17 in 10.0 mi North 28.8 mph 38.0 mph 0.01 in Rain Light Rain
9:53 PM 39.0 °F 29.3 °F 37.9 °F 96% 30.22 in 10.0 mi North 19.6 mph 31.1 mph 0.00 in Rain Light Rain
10:53 PM 37.9 °F 27.9 °F 37.0 °F 97% 30.25 in 9.0 mi NNW 19.6 mph - 0.00 in Snow Light Snow
11:53 PM 37.0 °F 26.7 °F 36.0 °F 96% 30.27 in 6.0 mi NNW 19.6 mph 31.1 mph 0.01 in Snow Light Snow